DECAYED

CZ-6A DEB, 61118 (Decayed)

Orbit data source: Space-Track

CZ-6A DEB, 61118 was space debris in LEO originally from a launch on Tue, 06 Aug 2024 UTC launched from the Taiyaun Space Center, China (TSC). Debris objects in space refer to the collection of defunct objects orbiting the Earth. Examples of debris include non-operational satellites, rocket bodies, and fragments generated from explosions, collisions, or faulty payload assembly.

Not visible in the next 10 days
Identifier
61118, 2024-140PL
Orbit
Decayed
Country
Flag of CNCN / PRC
Related business
Manufacturer
SAST
Mission
Decayed spacecraft
Bus & Motor
Unknown
Mass
Unknown
Launch date (UTC)
2024-08-06 (2 years ago)
Launch vehicle
Unknown
Launch site
Taiyaun Space Center, China (TSC)
Object type
Payload
Rocket body
Debris
Shape & HBR
Unknown shape, 0.1 m
Radar Cross Section
Small (<0.1 m²)

Expand to show TLE details & history
Last TLE update: 1 year ago

TLE from 1 year ago
0 CZ-6A DEB
1 61118U 24140PL  25115.89490805  .22931650 -96249-6  13258-1 0  9990
2 61118  89.2426 328.1724 0011747 229.5356 130.4919 16.18797433 36868
Epoch: 2025-04-25T21:28Z
TLE epoch observation values (Epoch: 2025-04-25T21:28:40.055Z)
Latitude
-0.00009°
Longitude
151.86007°
Altitude
231.194 km
Speed
7.765 km/s
True Right ascension
21h 52m 41s
True Declination
0° 00' 00"
Sunlit
Object was in daylight at epoch
Visualization orbit readout
Latitude
Unknown
Longitude
Unknown
Altitude
Unknown
Speed
Unknown
Apparent Right ascension
Unknown
Apparent Declination
Unknown
Sunlit
N/A
Visualization observer readout
Local Sidereal Time
23:44:58
Azimuth
Unknown
Elevation
Unknown
Doppler factor
Unknown
Orbital elements
Apogee altitude
227.24 km
Perigee altitude
211.74 km
Semi-major axis
6,597.627 km
Eccentricity
0.00117
Inclination
89.2426°
RAAN
328.1724°
Arg. of periapsis
229.5356°
True anomaly
130.59417°
Mean anomaly
130.4919°
Eccentric anomaly
130.54305°
Mean motion
4.05006 °/min
Orbital period
88.89 mins
BSTAR
0.013258
Loading maneuver chart data...
Computing Atmospheric mass density...
Loading historical data...
Loading historical data...
Loading historical data...
Loading historical data...
Loading historical data...
Loading historical data...
Loading historical data...

Documentation

Showing up to 5 results
|